Weather History for Hailey, ID

Change the Weather History Date:

Tuesday, October 23, 2012

  Actual Average Record
Temperature  
Mean Temperature 32 °F -  
Max Temperature 37 °F 53 °F 71 °F (1999)
Min Temperature 26 °F 30 °F 26 °F (2012)
Degree Days  
Heating Degree Days 34    
Moisture  
Dew Point 27 °F    
Average Humidity 86    
Maximum Humidity 100    
Minimum Humidity 56    
Precipitation  
Precipitation 0.00 in - - ()
Sea Level Pressure  
Sea Level Pressure 29.84 in    
Wind  
Wind Speed 4 mph (WNW)    
Max Wind Speed 15 mph    
Max Gust Speed 18 mph    
Visibility 8 miles    
Events Snow    
Averages and records for this station are not official NWS values.
T = Trace of Precipitation, MM = Missing Value Source: NWS Daily Summary

Daily Weather History Graph

Daily Weather History Graph

Search for Another Location

Airport:

Trip Planner

Search our weather history database for the weather conditions in past years. The results will help you decide how hot, cold, wet, or windy it might be!

Date:

Astronomy

Oct. 23, 2012 Rise Set
Actual Time 8:01 AM MDT 6:40 PM MDT
Civil Twilight 7:32 AM MDT 7:09 PM MDT
Nautical Twilight 6:59 AM MDT 7:42 PM MDT
Astronomical Twilight 6:26 AM MDT 8:15 PM MDT
Moon 3:35 PM MDT (10/23) 1:47 AM MDT (10/23)
Length of Visible Light 11h 36m
Length of Day
10h 38m
Waxing Gibbous, 67% of the Moon is Illuminated
Oct 23
Waxing Gibbous
Oct 29
Full
Nov 6
Last Quarter
Nov 13
New
Nov 20
First Quarter

Hourly Weather History & Observations

Time (MDT) Temp. Windchill Dew Point Humidity Pressure Visibility Wind Dir Wind Speed Gust Speed Precip Events Conditions
12:15 AM 33.8 °F - 33.8 °F 100% 29.73 in 7.0 mi Calm Calm - N/A   Overcast
1:15 AM 32.0 °F 28.7 °F 32.0 °F 100% 29.75 in 10.0 mi East 3.5 mph - N/A   Mostly Cloudy
1:35 AM 32.0 °F 28.7 °F 32.0 °F 100% 29.75 in 10.0 mi SSW 3.5 mph - N/A   Scattered Clouds
1:55 AM 32.0 °F - 32.0 °F 100% 29.74 in 7.0 mi Calm Calm - N/A   Clear
2:15 AM 32.0 °F - 32.0 °F 100% 29.74 in 7.0 mi Calm Calm - N/A   Clear
2:55 AM 32.0 °F 28.7 °F 32.0 °F 100% 29.75 in 10.0 mi NNW 3.5 mph - N/A   Scattered Clouds
3:15 AM 30.2 °F - 30.2 °F 100% 29.76 in 10.0 mi Calm Calm - N/A   Scattered Clouds
3:35 AM 30.2 °F 26.7 °F 30.2 °F 100% 29.76 in 10.0 mi NW 3.5 mph - N/A   Scattered Clouds
3:55 AM 32.0 °F 27.5 °F 30.2 °F 93% 29.76 in 10.0 mi NW 4.6 mph - N/A   Clear
4:15 AM 30.2 °F 24.3 °F 28.4 °F 93% 29.77 in 10.0 mi NW 5.8 mph - N/A   Clear
4:35 AM 30.2 °F 26.7 °F 28.4 °F 93% 29.77 in 10.0 mi NNW 3.5 mph - N/A   Clear
4:55 AM 30.2 °F 23.4 °F 28.4 °F 93% 29.77 in 10.0 mi WNW 6.9 mph - N/A   Scattered Clouds
5:35 AM 30.2 °F 24.3 °F 26.6 °F 86% 29.78 in 10.0 mi NNW 5.8 mph - N/A   Mostly Cloudy
5:55 AM 30.2 °F 24.3 °F 26.6 °F 86% 29.80 in 10.0 mi NW 5.8 mph - N/A   Mostly Cloudy
6:15 AM 30.2 °F - 26.6 °F 86% 29.80 in 3.0 mi Calm Calm - N/A Snow Light Snow
6:35 AM 30.2 °F 26.7 °F 28.4 °F 93% 29.81 in 1.2 mi NNW 3.5 mph - N/A Snow Light Snow
6:47 AM 28.4 °F 23.3 °F 26.6 °F 93% 29.80 in 5.0 mi NW 4.6 mph - N/A Snow Light Snow
6:55 AM 30.2 °F 24.3 °F 28.4 °F 93% 29.80 in 5.0 mi NW 5.8 mph - N/A Snow Light Snow
7:47 AM 28.4 °F 24.6 °F 26.6 °F 93% 29.81 in 7.0 mi North 3.5 mph - N/A   Overcast
8:35 AM 28.4 °F - 26.6 °F 93% 29.81 in 2.0 mi Calm Calm - N/A Snow Light Snow
8:47 AM 28.4 °F - 26.6 °F 93% 29.82 in 0.5 mi Calm Calm - N/A Snow Light Snow
9:47 AM 30.2 °F - 28.4 °F 93% 29.83 in 0.5 mi Calm Calm - N/A Snow Light Snow
10:47 AM 32.0 °F 25.6 °F 30.2 °F 93% 29.83 in 2.0 mi SE 6.9 mph - N/A   Overcast
11:47 AM 32.0 °F 23.0 °F 30.2 °F 93% 29.85 in 1.0 mi ESE 11.5 mph - N/A Snow Light Snow
12:07 PM 32.0 °F 23.6 °F 32.0 °F 100% 29.85 in 5.0 mi ESE 10.4 mph - N/A   Overcast
12:47 PM 35.6 °F 29.9 °F 28.4 °F 75% 29.86 in 7.0 mi SSW 6.9 mph - N/A   Mostly Cloudy
1:47 PM 35.6 °F 29.2 °F 26.6 °F 70% 29.87 in 7.0 mi SSW 8.1 mph 18.4 mph N/A   Mostly Cloudy
2:47 PM 37.4 °F 33.8 °F 26.6 °F 65% 29.87 in 10.0 mi WSW 4.6 mph - N/A   Scattered Clouds
3:50 PM 37.4 °F 31.4 °F 24.8 °F 60% 29.89 in 10.0 mi West 8.1 mph - N/A   Scattered Clouds
4:47 PM 37.4 °F 32.8 °F 24.8 °F 60% 29.90 in 10.0 mi SSW 5.8 mph - N/A   Scattered Clouds
5:50 PM 35.6 °F 30.7 °F 21.2 °F 56% 29.91 in 10.0 mi South 5.8 mph - N/A   Scattered Clouds
6:47 PM 33.8 °F 29.6 °F 23.0 °F 65% 29.93 in 10.0 mi WSW 4.6 mph - N/A   Scattered Clouds
7:47 PM 32.0 °F 28.7 °F 24.8 °F 75% 29.96 in 10.0 mi ENE 3.5 mph - N/A   Scattered Clouds
8:47 PM 30.2 °F 24.3 °F 24.8 °F 80% 29.96 in 10.0 mi WNW 5.8 mph - N/A   Scattered Clouds
9:47 PM 28.4 °F 22.2 °F 23.0 °F 80% 29.96 in 10.0 mi NW 5.8 mph - N/A   Clear
10:47 PM 26.6 °F 16.8 °F 21.2 °F 80% 29.97 in 10.0 mi NW 10.4 mph - N/A   Clear
11:15 PM 28.4 °F 19.1 °F 21.2 °F 74% 29.97 in 10.0 mi NW 10.4 mph - N/A   Clear
11:35 PM 28.4 °F 17.0 °F 21.2 °F 74% 29.97 in 10.0 mi NW 15.0 mph - N/A   Clear
11:55 PM 26.6 °F 14.7 °F 21.2 °F 80% 29.97 in 10.0 mi NW 15.0 mph - N/A   Clear